TimeEST,TemperatureF,Dew PointF,Humidity,Sea Level PressureIn,VisibilityMPH,Wind Direction,Wind SpeedMPH,Gust SpeedMPH,PrecipitationIn,Events,Conditions,WindDirDegrees,DateUTC
12:55 AM,27.0,22.8,84,30.23,10.0,Calm,Calm,-,N/A,,Clear,0,2013-02-26 05:55:00
1:55 AM,26.8,22.8,85,30.25,10.0,Calm,Calm,-,N/A,,Clear,0,2013-02-26 06:55:00
2:55 AM,26.6,23.0,86,30.24,10.0,Calm,Calm,-,N/A,,Clear,0,2013-02-26 07:55:00
3:55 AM,27.5,23.4,84,30.22,10.0,Calm,Calm,-,N/A,,Clear,0,2013-02-26 08:55:00
4:55 AM,26.8,23.5,88,30.19,10.0,Calm,Calm,-,N/A,,Clear,0,2013-02-26 09:55:00
5:55 AM,27.9,23.9,85,30.21,10.0,Calm,Calm,-,N/A,,Clear,0,2013-02-26 10:55:00
6:55 AM,29.1,24.6,83,30.21,10.0,Calm,Calm,-,N/A,,Clear,0,2013-02-26 11:55:00
7:55 AM,29.8,26.2,86,30.19,10.0,Calm,Calm,-,N/A,,Clear,0,2013-02-26 12:55:00
8:55 AM,35.8,29.3,77,30.20,10.0,Calm,Calm,-,N/A,,Clear,0,2013-02-26 13:55:00
9:55 AM,37.8,28.9,71,30.20,10.0,Variable,4.6,-,N/A,,Overcast,0,2013-02-26 14:55:00
10:05 AM,37.4,28.4,70,30.19,10.0,Variable,3.5,-,N/A,,Overcast,0,2013-02-26 15:05:00
10:55 AM,39.0,29.1,68,30.16,10.0,Variable,3.5,-,N/A,,Overcast,0,2013-02-26 15:55:00
11:00 AM,39.2,28.4,65,30.16,10.0,Calm,Calm,-,N/A,Rain,Light Rain,0,2013-02-26 16:00:00
11:45 AM,39.2,33.8,81,30.14,10.0,Calm,Calm,-,N/A,Rain,Light Rain,0,2013-02-26 16:45:00
11:55 AM,38.7,33.4,81,30.13,8.0,Calm,Calm,-,0.00,Rain,Light Rain,0,2013-02-26 16:55:00
12:07 PM,39.2,33.8,81,30.12,7.0,Calm,Calm,-,N/A,Rain,Light Rain,0,2013-02-26 17:07:00
12:55 PM,39.0,35.4,87,30.09,6.0,Variable,4.6,-,0.02,Rain,Light Rain,0,2013-02-26 17:55:00
1:36 PM,39.2,35.6,87,30.05,7.0,Variable,6.9,-,N/A,Rain,Light Rain,0,2013-02-26 18:36:00
1:55 PM,39.6,36.5,89,30.04,6.0,Variable,5.8,-,0.01,Rain,Light Rain,0,2013-02-26 18:55:00
1:57 PM,39.2,37.4,93,30.04,6.0,Variable,3.5,-,N/A,Rain,Light Rain,0,2013-02-26 18:57:00
2:20 PM,41.0,37.4,87,30.01,5.0,Variable,5.8,-,N/A,Rain,Light Rain,0,2013-02-26 19:20:00
2:55 PM,40.8,38.5,91,29.98,5.0,Variable,4.6,-,0.04,Rain,Light Rain,0,2013-02-26 19:55:00
3:00 PM,41.0,39.2,93,29.97,5.0,Variable,3.5,-,N/A,Rain,Light Rain,0,2013-02-26 20:00:00
3:02 PM,41.0,39.2,93,29.96,5.0,ENE,8.1,-,N/A,Rain,Light Rain,70,2013-02-26 20:02:00
3:05 PM,41.0,39.2,93,29.96,5.0,Variable,6.9,-,N/A,Rain,Light Rain,0,2013-02-26 20:05:00
3:07 PM,41.0,39.2,93,29.96,5.0,Variable,4.6,-,N/A,Rain,Light Rain,0,2013-02-26 20:07:00
3:11 PM,41.0,39.2,93,29.95,5.0,Variable,5.8,-,N/A,Rain,Light Rain,0,2013-02-26 20:11:00
3:12 PM,41.0,39.2,93,29.95,5.0,Variable,5.8,-,N/A,Rain,Light Rain,0,2013-02-26 20:12:00
3:19 PM,41.0,39.2,93,29.94,5.0,Variable,6.9,-,N/A,Rain,Light Rain,0,2013-02-26 20:19:00
3:55 PM,41.7,39.6,92,29.91,9.0,ENE,8.1,-,0.03,Rain,Light Rain,70,2013-02-26 20:55:00
4:55 PM,43.2,40.8,91,29.84,10.0,East,10.4,17.3,0.00,Rain,Light Rain,90,2013-02-26 21:55:00
4:57 PM,42.8,41.0,93,29.84,10.0,East,10.4,18.4,N/A,,Overcast,90,2013-02-26 21:57:00
5:21 PM,44.6,41.0,87,29.82,10.0,East,10.4,25.3,N/A,Rain,Light Rain,100,2013-02-26 22:21:00
5:55 PM,43.9,41.2,90,29.79,3.0,East,8.1,19.6,0.02,Rain,Light Rain,80,2013-02-26 22:55:00
6:04 PM,44.6,41.0,87,29.78,4.0,East,8.1,-,N/A,Rain,Light Rain,80,2013-02-26 23:04:00
6:11 PM,44.6,41.0,87,29.78,4.0,Variable,4.6,-,N/A,Rain,Light Rain,0,2013-02-26 23:11:00
6:18 PM,44.6,41.0,87,29.77,6.0,ENE,8.1,-,N/A,Rain,Light Rain,70,2013-02-26 23:18:00
6:28 PM,42.8,41.0,93,29.77,6.0,East,8.1,-,N/A,Rain,Light Rain,80,2013-02-26 23:28:00
6:55 PM,43.5,41.4,92,29.75,4.0,East,8.1,-,0.04,Rain,Light Rain,80,2013-02-26 23:55:00
7:03 PM,44.6,41.0,87,29.76,4.0,East,4.6,17.3,N/A,Rain,Light Rain,90,2013-02-27 00:03:00
7:09 PM,44.6,41.0,87,29.75,6.0,East,12.7,19.6,N/A,Rain,Light Rain,80,2013-02-27 00:09:00
7:11 PM,44.6,41.0,87,29.75,5.0,ENE,8.1,19.6,N/A,Rain,Light Rain,70,2013-02-27 00:11:00
7:39 PM,44.6,42.8,93,29.72,4.0,East,3.5,17.3,N/A,Rain,Light Rain,90,2013-02-27 00:39:00
7:45 PM,44.6,42.8,93,29.71,3.0,ENE,9.2,17.3,N/A,Rain,Light Rain,70,2013-02-27 00:45:00
7:55 PM,44.4,42.6,93,29.72,7.0,Variable,5.8,-,0.09,Rain,Light Rain,0,2013-02-27 00:55:00
8:39 PM,44.6,42.8,93,29.72,4.0,Variable,4.6,-,N/A,Rain,Light Rain,0,2013-02-27 01:39:00
8:44 PM,44.6,42.8,93,29.73,3.0,Calm,Calm,-,N/A,Rain,Rain,0,2013-02-27 01:44:00
8:55 PM,45.7,43.9,93,29.74,4.0,Calm,Calm,-,0.14,Rain,Light Rain,0,2013-02-27 01:55:00
9:02 PM,46.4,44.6,93,29.73,2.5,Variable,4.6,-,N/A,Rain,Rain,0,2013-02-27 02:02:00
9:05 PM,46.4,44.6,93,29.73,3.0,Variable,5.8,-,N/A,Rain,Rain,0,2013-02-27 02:05:00
9:15 PM,44.6,44.6,100,29.72,4.0,WSW,3.5,-,N/A,Rain,Light Rain,240,2013-02-27 02:15:00
9:16 PM,44.6,44.6,100,29.72,4.0,WSW,3.5,-,N/A,Rain,Light Rain,250,2013-02-27 02:16:00
9:25 PM,44.6,44.6,100,29.72,7.0,Calm,Calm,-,N/A,Rain,Light Rain,0,2013-02-27 02:25:00
9:31 PM,44.6,44.6,100,29.70,6.0,NE,5.8,-,N/A,Rain,Light Rain,40,2013-02-27 02:31:00
9:35 PM,44.6,44.6,100,29.70,5.0,NNE,4.6,-,N/A,Rain,Light Rain,30,2013-02-27 02:35:00
9:43 PM,44.6,44.6,100,29.70,5.0,Variable,3.5,-,N/A,Rain,Light Rain,0,2013-02-27 02:43:00
9:55 PM,45.3,44.1,95,29.69,7.0,Calm,Calm,-,0.09,Rain,Light Rain,0,2013-02-27 02:55:00
9:56 PM,44.6,44.6,100,29.70,7.0,NNE,3.5,-,N/A,Rain,Light Rain,30,2013-02-27 02:56:00
10:09 PM,44.6,42.8,93,29.66,5.0,Variable,5.8,-,N/A,Rain,Light Rain,0,2013-02-27 03:09:00
10:12 PM,44.6,42.8,93,29.66,5.0,Calm,Calm,-,N/A,Rain,Light Rain,0,2013-02-27 03:12:00
10:38 PM,44.6,42.8,93,29.65,10.0,Variable,3.5,-,N/A,,Overcast,0,2013-02-27 03:38:00
10:40 PM,44.6,42.8,93,29.65,10.0,NNE,4.6,-,N/A,,Light Drizzle,30,2013-02-27 03:40:00
10:41 PM,44.6,42.8,93,29.65,10.0,Variable,5.8,-,N/A,,Light Drizzle,0,2013-02-27 03:41:00
10:43 PM,44.6,42.8,93,29.65,10.0,Variable,3.5,-,N/A,,Overcast,0,2013-02-27 03:43:00
10:55 PM,45.3,43.9,95,29.65,8.0,Variable,3.5,-,0.01,,Overcast,0,2013-02-27 03:55:00
10:56 PM,44.6,44.6,100,29.65,8.0,Variable,3.5,-,N/A,Rain,Light Rain,0,2013-02-27 03:56:00
11:02 PM,44.6,44.6,100,29.64,9.0,NNW,3.5,-,N/A,Rain,Light Rain,330,2013-02-27 04:02:00
11:40 PM,44.6,44.6,100,29.62,4.0,NE,3.5,-,N/A,,Overcast,50,2013-02-27 04:40:00
11:55 PM,45.3,44.2,96,29.61,6.0,Calm,Calm,-,0.00,,Overcast,0,2013-02-27 04:55:00